Location: Staunton
(38.1490°N, 79.0720°W)
Time: 14:12:04
(UTC-04:00)

ISS - Pass Details

Date: 21 July 2019
Orbit: 409 x 418 km, 51.6° (Epoch: 20 July)

Event Time Altitude Azimuth Distance (km) Brightness Sun altitude
Rises 22:22:37 0° 285° (WNW) 2,350 1.1 -17.8°
Reaches altitude 10° 22:25:46 10° 317° (NW) 1,487 0.3 -18.3°
Maximum altitude 22:27:12 12° 343° (NNW) 1,360 -0.2 -18.5°
Drops below altitude 10° 22:28:37 10° 8° (N) 1,486 -0.5 -18.6°
Sets 22:31:47 0° 41° (NE) 2,348 0.1 -19.1°
